Year,Month,Day,Hour,Minute,Value (Times are PST for temperature in C)
2009,03,22,00,00,1.80
2009,03,22,00,01,1.80
2009,03,22,00,02,1.80
2009,03,22,00,03,1.80
2009,03,22,00,04,1.80
2009,03,22,00,05,1.80
2009,03,22,00,06,1.80
2009,03,22,00,07,1.80
2009,03,22,00,08,1.80
2009,03,22,00,09,1.80
2009,03,22,00,10,1.80
2009,03,22,00,11,1.80
2009,03,22,00,12,1.80
2009,03,22,01,02,1.90
2009,03,22,01,03,1.90
2009,03,22,01,04,1.90
2009,03,22,01,05,1.90
2009,03,22,01,06,1.90
2009,03,22,01,07,1.90
2009,03,22,01,08,1.90
2009,03,22,01,09,1.90
2009,03,22,01,10,2.00
2009,03,22,01,11,2.00
2009,03,22,01,12,2.00
2009,03,22,01,13,2.10
2009,03,22,01,14,2.10
2009,03,22,01,15,2.10
2009,03,22,01,16,2.10
2009,03,22,01,17,2.20
2009,03,22,01,18,2.20
2009,03,22,01,19,2.20
2009,03,22,01,20,2.20
2009,03,22,01,21,2.20
2009,03,22,01,22,2.20
2009,03,22,01,23,2.20
2009,03,22,01,24,2.20
2009,03,22,01,25,2.20
2009,03,22,01,26,2.20
2009,03,22,01,27,2.20
2009,03,22,01,28,2.20
2009,03,22,01,29,2.20
2009,03,22,01,30,2.20
2009,03,22,01,31,2.20
2009,03,22,01,32,2.20
2009,03,22,01,33,2.20
2009,03,22,01,34,2.20
2009,03,22,01,35,2.20
2009,03,22,01,36,2.20
2009,03,22,01,37,2.20
2009,03,22,01,38,2.20
2009,03,22,01,39,2.20
2009,03,22,01,40,2.20
2009,03,22,01,41,2.20
2009,03,22,01,42,2.30
2009,03,22,01,43,2.30
2009,03,22,01,44,2.30
2009,03,22,01,45,2.30
2009,03,22,01,46,2.30
2009,03,22,01,47,2.30
2009,03,22,01,48,2.30
2009,03,22,01,49,2.30
2009,03,22,01,50,2.30
2009,03,22,01,51,2.40
2009,03,22,01,52,2.40
2009,03,22,01,53,2.40
2009,03,22,01,54,2.40
2009,03,22,01,55,2.50
2009,03,22,01,56,2.50
2009,03,22,01,57,2.60
2009,03,22,01,58,2.60
2009,03,22,01,59,2.60
2009,03,22,02,00,2.60
2009,03,22,02,01,2.60
2009,03,22,02,02,2.60
2009,03,22,02,03,2.60
2009,03,22,02,04,2.60
2009,03,22,02,05,2.60
2009,03,22,02,06,2.60
2009,03,22,02,07,2.60
2009,03,22,02,08,2.50
2009,03,22,02,09,2.60
2009,03,22,02,10,2.50
2009,03,22,02,11,2.50
2009,03,22,02,12,2.50
2009,03,22,02,13,2.40
2009,03,22,02,14,2.40
2009,03,22,02,15,2.40
2009,03,22,02,16,2.40
2009,03,22,02,17,2.40
2009,03,22,02,18,2.40
2009,03,22,02,19,2.40
2009,03,22,02,20,2.40
2009,03,22,02,21,2.30
2009,03,22,02,22,2.30
2009,03,22,02,23,2.30
2009,03,22,02,24,2.30
2009,03,22,02,25,2.20
2009,03,22,02,26,2.20
2009,03,22,02,27,2.20
2009,03,22,02,28,2.20
2009,03,22,02,29,2.20
2009,03,22,02,30,2.20
2009,03,22,02,31,2.20
2009,03,22,02,32,2.20
2009,03,22,02,33,2.20
2009,03,22,02,34,2.20
2009,03,22,02,35,2.20
2009,03,22,02,36,2.20
2009,03,22,02,37,2.20
2009,03,22,02,38,2.20
2009,03,22,02,39,2.20
2009,03,22,02,40,2.20
2009,03,22,02,41,2.20
2009,03,22,02,42,2.30
2009,03,22,02,43,2.30
2009,03,22,02,44,2.30
2009,03,22,02,45,2.30
2009,03,22,02,46,2.30
2009,03,22,02,47,2.20
2009,03,22,02,48,2.20
2009,03,22,02,49,2.20
2009,03,22,02,50,2.20
2009,03,22,02,51,2.20
2009,03,22,02,52,2.20
2009,03,22,02,53,2.20
2009,03,22,02,54,2.20
2009,03,22,02,55,2.20
2009,03,22,02,56,2.20
2009,03,22,02,57,2.20
2009,03,22,02,58,2.20
2009,03,22,02,59,2.20
2009,03,22,03,00,2.20
2009,03,22,03,01,2.20
2009,03,22,03,02,2.20
2009,03,22,03,03,2.20
2009,03,22,03,04,2.20
2009,03,22,03,05,2.20
2009,03,22,03,06,2.20
2009,03,22,03,07,2.20
2009,03,22,03,08,2.20
2009,03,22,03,09,2.20
2009,03,22,03,10,2.20
2009,03,22,03,11,2.20
2009,03,22,03,12,2.20
2009,03,22,03,13,2.20
2009,03,22,03,14,2.20
2009,03,22,03,15,2.20
2009,03,22,03,16,2.20
2009,03,22,03,17,2.20
2009,03,22,03,18,2.20
2009,03,22,03,19,2.10
2009,03,22,03,20,2.10
2009,03,22,03,21,2.10
2009,03,22,03,22,2.10
2009,03,22,03,23,2.00
2009,03,22,03,24,2.00
2009,03,22,03,25,2.00
2009,03,22,03,26,2.00
2009,03,22,03,27,2.00
2009,03,22,03,28,2.00
2009,03,22,03,29,2.00
2009,03,22,03,30,1.90
2009,03,22,03,31,1.90
2009,03,22,03,32,1.90
2009,03,22,03,33,1.90
2009,03,22,03,34,1.90
2009,03,22,03,35,1.90
2009,03,22,03,36,1.90
2009,03,22,03,37,1.90
2009,03,22,03,38,2.00
2009,03,22,03,39,2.00
2009,03,22,03,40,2.00
2009,03,22,03,41,2.10
2009,03,22,03,42,2.10
2009,03,22,03,43,2.10
2009,03,22,03,44,2.10
2009,03,22,03,45,2.10
2009,03,22,03,46,2.10
2009,03,22,03,47,2.10
2009,03,22,03,48,2.10
2009,03,22,03,49,2.20
2009,03,22,03,50,2.20
2009,03,22,03,51,2.20
2009,03,22,03,52,2.20
2009,03,22,03,53,2.20
2009,03,22,03,54,2.20
2009,03,22,03,55,2.20
2009,03,22,03,56,2.20
2009,03,22,03,57,2.20
2009,03,22,03,58,2.20
2009,03,22,03,59,2.20
2009,03,22,04,00,2.30
2009,03,22,04,01,2.30
2009,03,22,04,02,2.30
2009,03,22,04,03,2.30
2009,03,22,04,04,2.30
2009,03,22,04,05,2.30
2009,03,22,04,06,2.30
2009,03,22,04,07,2.30
2009,03,22,04,08,2.30
2009,03,22,04,09,2.30
2009,03,22,04,10,2.30
2009,03,22,04,11,2.30
2009,03,22,04,12,2.30
2009,03,22,04,13,2.30
2009,03,22,04,14,2.30
2009,03,22,04,15,2.40
2009,03,22,04,16,2.40
2009,03,22,04,17,2.40
2009,03,22,04,18,2.40
2009,03,22,04,19,2.40
2009,03,22,04,20,2.40
2009,03,22,04,21,2.40
2009,03,22,04,22,2.40
2009,03,22,04,23,2.40
2009,03,22,04,24,2.40
2009,03,22,04,25,2.30
2009,03,22,04,26,2.30
2009,03,22,04,27,2.30
2009,03,22,04,28,2.30
2009,03,22,04,29,2.30
2009,03,22,04,30,2.30
2009,03,22,04,31,2.30
2009,03,22,04,32,2.30
2009,03,22,04,33,2.30
2009,03,22,04,34,2.30
2009,03,22,04,35,2.30
2009,03,22,04,36,2.30
2009,03,22,04,37,2.30
2009,03,22,04,38,2.30
2009,03,22,04,39,2.20
2009,03,22,04,40,2.20
2009,03,22,04,41,2.20
2009,03,22,04,42,2.20
2009,03,22,04,43,2.20
2009,03,22,04,44,2.20
2009,03,22,04,45,2.20
2009,03,22,04,46,2.20
2009,03,22,04,47,2.20
2009,03,22,04,48,2.20
2009,03,22,04,49,2.20
2009,03,22,04,50,2.20
2009,03,22,04,51,2.30
2009,03,22,04,52,2.30
2009,03,22,04,53,2.30
2009,03,22,04,54,2.40
2009,03,22,04,55,2.40
2009,03,22,04,56,2.40
2009,03,22,04,57,2.40
2009,03,22,04,58,2.50
2009,03,22,04,59,2.50
2009,03,22,05,00,2.50
2009,03,22,05,01,2.50
2009,03,22,05,02,2.60
2009,03,22,05,03,2.60
2009,03,22,05,04,2.60
2009,03,22,05,05,2.60
2009,03,22,05,06,2.60
2009,03,22,05,07,2.60
2009,03,22,05,08,2.60
2009,03,22,05,09,2.60
2009,03,22,05,10,2.60
2009,03,22,05,11,2.70
2009,03,22,05,12,2.70
2009,03,22,05,13,2.70
2009,03,22,05,14,2.70
2009,03,22,05,15,2.70
2009,03,22,05,16,2.70
2009,03,22,05,17,2.70
2009,03,22,05,18,2.70
2009,03,22,05,19,2.70
2009,03,22,05,20,2.70
2009,03,22,05,21,2.70
2009,03,22,05,22,2.70
2009,03,22,05,23,2.70
2009,03,22,05,24,2.70
2009,03,22,05,25,2.70
2009,03,22,05,26,2.70
2009,03,22,05,27,2.70
2009,03,22,05,28,2.70
2009,03,22,05,29,2.70
2009,03,22,05,30,2.70
2009,03,22,05,31,2.60
2009,03,22,05,32,2.60
2009,03,22,05,33,2.60
2009,03,22,05,34,2.60
2009,03,22,05,35,2.60
2009,03,22,05,36,2.60
2009,03,22,05,37,2.60
2009,03,22,05,38,2.60
2009,03,22,05,39,2.60
2009,03,22,05,40,2.60
2009,03,22,05,41,2.60
2009,03,22,05,42,2.60
2009,03,22,05,43,2.60
2009,03,22,05,44,2.60
2009,03,22,05,45,2.60
2009,03,22,05,46,2.60
2009,03,22,05,47,2.60
2009,03,22,05,48,2.60
2009,03,22,05,49,2.60
2009,03,22,05,50,2.60
2009,03,22,05,51,2.60
2009,03,22,05,52,2.60
2009,03,22,05,53,2.60
2009,03,22,05,54,2.60
2009,03,22,05,55,2.70
2009,03,22,05,56,2.70
2009,03,22,05,57,2.80
2009,03,22,05,58,2.80
2009,03,22,05,59,2.80
2009,03,22,06,00,2.90
2009,03,22,06,01,2.90
2009,03,22,06,02,2.90
2009,03,22,06,03,2.90
2009,03,22,06,04,2.90
2009,03,22,06,05,2.90
2009,03,22,06,06,2.90
2009,03,22,06,07,3.00
2009,03,22,06,08,3.00
2009,03,22,06,09,3.00
2009,03,22,06,10,3.00
2009,03,22,06,11,3.10
2009,03,22,06,12,3.10
2009,03,22,06,13,3.10
2009,03,22,06,14,3.10
2009,03,22,06,15,3.20
2009,03,22,06,16,3.20
2009,03,22,06,17,3.20
2009,03,22,06,18,3.20
2009,03,22,06,19,3.20
2009,03,22,06,20,3.20
2009,03,22,06,21,3.20
2009,03,22,06,22,3.20
2009,03,22,06,23,3.20
2009,03,22,06,24,3.20
2009,03,22,06,25,3.20
2009,03,22,06,26,3.20
2009,03,22,06,27,3.20
2009,03,22,06,28,3.20
2009,03,22,06,29,3.20
2009,03,22,06,30,3.20
2009,03,22,06,31,3.20
2009,03,22,06,32,3.20
2009,03,22,06,33,3.20
2009,03,22,06,34,3.20
2009,03,22,06,35,3.20
2009,03,22,06,36,3.20
2009,03,22,06,37,3.20
2009,03,22,06,38,3.20
2009,03,22,06,39,3.20
2009,03,22,06,40,3.20
2009,03,22,06,41,3.20
2009,03,22,06,42,3.20
2009,03,22,06,43,3.20
2009,03,22,06,44,3.20
2009,03,22,06,45,3.20
2009,03,22,06,46,3.20
2009,03,22,06,47,3.20
2009,03,22,06,48,3.20
2009,03,22,06,49,3.20
2009,03,22,06,50,3.30
2009,03,22,06,51,3.30
2009,03,22,06,52,3.30
2009,03,22,06,53,3.30
2009,03,22,06,54,3.30
2009,03,22,06,55,3.30
2009,03,22,06,56,3.30
2009,03,22,06,57,3.30
2009,03,22,06,58,3.30
2009,03,22,06,59,3.30
2009,03,22,07,00,3.30
2009,03,22,07,01,3.30
2009,03,22,07,02,3.30
2009,03,22,07,03,3.30
2009,03,22,07,04,3.30
2009,03,22,07,05,3.30
2009,03,22,07,06,3.30
2009,03,22,07,07,3.30
2009,03,22,07,08,3.30
2009,03,22,07,09,3.30
2009,03,22,07,10,3.30
2009,03,22,07,11,3.30
2009,03,22,07,12,3.30
2009,03,22,07,13,3.30
2009,03,22,07,14,3.30
2009,03,22,07,15,3.30
2009,03,22,07,16,3.30
2009,03,22,07,17,3.20
2009,03,22,07,18,3.20
2009,03,22,07,19,3.20
2009,03,22,07,20,3.20
2009,03,22,07,21,3.20
2009,03,22,07,22,3.20
2009,03,22,07,23,3.20
2009,03,22,07,24,3.20
2009,03,22,07,25,3.20
2009,03,22,07,26,3.30
2009,03,22,07,27,3.20
2009,03,22,07,28,3.30
2009,03,22,07,29,3.30
2009,03,22,07,30,3.30
2009,03,22,07,31,3.30
2009,03,22,07,32,3.30
2009,03,22,07,33,3.30
2009,03,22,07,34,3.30
2009,03,22,07,35,3.30
2009,03,22,07,36,3.30
2009,03,22,07,37,3.30
2009,03,22,07,38,3.30
2009,03,22,07,39,3.40
2009,03,22,07,40,3.40
2009,03,22,07,41,3.40
2009,03,22,07,42,3.40
2009,03,22,07,43,3.40
2009,03,22,07,44,3.40
2009,03,22,07,45,3.40
2009,03,22,07,46,3.40
2009,03,22,07,47,3.40
2009,03,22,07,48,3.50
2009,03,22,07,49,3.50
2009,03,22,07,50,3.50
2009,03,22,07,51,3.50
2009,03,22,07,52,3.50
2009,03,22,07,53,3.50
2009,03,22,07,54,3.50
2009,03,22,07,55,3.50
2009,03,22,07,56,3.50
2009,03,22,07,57,3.50
2009,03,22,07,58,3.50
2009,03,22,07,59,3.60
2009,03,22,08,00,3.50
2009,03,22,08,01,3.60
2009,03,22,08,02,3.60
2009,03,22,08,03,3.60
2009,03,22,08,04,3.60
2009,03,22,08,05,3.60
2009,03,22,08,06,3.60
2009,03,22,08,07,3.60
2009,03,22,08,08,3.70
2009,03,22,08,09,3.70
2009,03,22,08,10,3.70
2009,03,22,08,11,3.70
2009,03,22,08,12,3.70
2009,03,22,08,13,3.70
2009,03,22,08,14,3.70
2009,03,22,08,15,3.70
2009,03,22,08,16,3.70
2009,03,22,08,17,3.70
2009,03,22,08,18,3.70
2009,03,22,08,19,3.70
2009,03,22,08,20,3.70
2009,03,22,08,21,3.70
2009,03,22,08,22,3.80
2009,03,22,08,23,3.80
2009,03,22,08,24,3.80
2009,03,22,08,25,3.80
2009,03,22,08,26,3.80
2009,03,22,08,27,3.80
2009,03,22,08,28,3.90
2009,03,22,08,29,3.90
2009,03,22,08,30,3.90
2009,03,22,08,31,3.90
2009,03,22,08,32,3.90
2009,03,22,08,33,3.90
2009,03,22,08,34,3.90
2009,03,22,08,35,3.90
2009,03,22,08,36,3.90
2009,03,22,08,37,4.00
2009,03,22,08,38,4.00
2009,03,22,08,39,4.00
2009,03,22,08,40,4.10
2009,03,22,08,41,4.10
2009,03,22,08,42,4.10
2009,03,22,08,43,4.10
2009,03,22,08,44,4.10
2009,03,22,08,45,4.10
2009,03,22,08,46,4.10
2009,03,22,08,47,4.10
2009,03,22,08,48,4.10
2009,03,22,08,49,4.10
2009,03,22,08,50,4.10
2009,03,22,08,51,4.20
2009,03,22,08,52,4.20
2009,03,22,08,53,4.20
2009,03,22,08,54,4.20
2009,03,22,08,55,4.20
2009,03,22,08,56,4.20
2009,03,22,08,57,4.30
2009,03,22,08,58,4.30
2009,03,22,08,59,4.30
2009,03,22,09,00,4.30
2009,03,22,09,01,4.30
2009,03,22,09,02,4.40
2009,03,22,09,03,4.40
2009,03,22,09,04,4.50
2009,03,22,09,05,4.50
2009,03,22,09,06,4.60
2009,03,22,09,07,4.60
2009,03,22,09,08,4.60
2009,03,22,09,09,4.60
2009,03,22,09,10,4.70
2009,03,22,09,11,4.70
2009,03,22,09,12,4.70
2009,03,22,09,13,4.80
2009,03,22,09,14,4.80
2009,03,22,09,15,4.80
2009,03,22,09,16,4.90
2009,03,22,09,17,4.90
2009,03,22,09,18,4.90
2009,03,22,09,19,5.00
2009,03,22,09,20,5.00
2009,03,22,09,21,5.10
2009,03,22,09,22,5.10
2009,03,22,09,23,5.10
2009,03,22,09,24,5.10
2009,03,22,09,25,5.10
2009,03,22,09,26,5.20
2009,03,22,09,27,5.20
2009,03,22,09,28,5.20
2009,03,22,09,29,5.20
2009,03,22,09,30,5.20
2009,03,22,09,31,5.20
2009,03,22,09,32,5.30
2009,03,22,09,33,5.30
2009,03,22,09,34,5.30
2009,03,22,09,35,5.30
2009,03,22,09,36,5.30
2009,03,22,09,37,5.30
2009,03,22,09,38,5.20
2009,03,22,09,39,5.20
2009,03,22,09,40,5.20
2009,03,22,09,41,5.20
2009,03,22,09,42,5.20
2009,03,22,09,43,5.20
2009,03,22,09,44,5.20
2009,03,22,09,45,5.20
2009,03,22,09,46,5.10
2009,03,22,09,47,5.10
2009,03,22,09,48,5.10
2009,03,22,09,49,5.20
2009,03,22,09,50,5.20
2009,03,22,09,51,5.20
2009,03,22,09,52,5.20
2009,03,22,09,53,5.20
2009,03,22,09,54,5.20
2009,03,22,09,55,5.20
2009,03,22,09,56,5.30
2009,03,22,09,57,5.30
2009,03,22,09,58,5.30
2009,03,22,09,59,5.30
2009,03,22,10,00,5.30
2009,03,22,10,01,5.30
2009,03,22,10,02,5.40
2009,03,22,10,03,5.40
2009,03,22,10,04,5.40
2009,03,22,10,05,5.40
2009,03,22,10,06,5.40
2009,03,22,10,07,5.40
2009,03,22,10,08,5.40
2009,03,22,10,09,5.40
2009,03,22,10,10,5.40
2009,03,22,10,11,5.50
2009,03,22,10,12,5.50
2009,03,22,10,13,5.50
2009,03,22,10,14,5.50
2009,03,22,10,15,5.50
2009,03,22,10,16,5.50
2009,03,22,10,17,5.50
2009,03,22,10,18,5.50
2009,03,22,10,19,5.50
2009,03,22,10,20,5.50
2009,03,22,10,21,5.50
2009,03,22,10,22,5.40
2009,03,22,10,23,5.50
2009,03,22,10,24,5.50
2009,03,22,10,25,5.50
2009,03,22,10,26,5.50
2009,03,22,10,27,5.60
2009,03,22,10,28,5.60
2009,03,22,10,29,5.60
2009,03,22,10,30,5.60
2009,03,22,10,31,5.60
2009,03,22,10,32,5.60
2009,03,22,10,33,5.50
2009,03,22,10,34,5.50
2009,03,22,10,35,5.50
2009,03,22,10,36,5.50
2009,03,22,10,37,5.50
2009,03,22,10,38,5.50
2009,03,22,10,39,5.50
2009,03,22,10,40,5.50
2009,03,22,10,41,5.50
2009,03,22,10,42,5.50
2009,03,22,10,43,5.50
2009,03,22,10,44,5.50
2009,03,22,10,45,5.50
2009,03,22,10,46,5.50
2009,03,22,10,47,5.50
2009,03,22,10,48,5.50
2009,03,22,10,49,5.50
2009,03,22,10,50,5.50
2009,03,22,10,51,5.50
2009,03,22,10,52,5.50
2009,03,22,10,53,5.50
2009,03,22,10,54,5.60
2009,03,22,10,55,5.60
2009,03,22,10,56,5.60
2009,03,22,10,57,5.60
2009,03,22,10,58,5.60
2009,03,22,10,59,5.60
2009,03,22,11,00,5.60
2009,03,22,11,01,5.60
2009,03,22,11,02,5.60
2009,03,22,11,03,5.60
2009,03,22,11,04,5.60
2009,03,22,11,05,5.60
2009,03,22,11,06,5.60
2009,03,22,11,07,5.60
2009,03,22,11,08,5.60
2009,03,22,11,09,5.60
2009,03,22,11,10,5.60
2009,03,22,11,11,5.70
2009,03,22,11,12,5.70
2009,03,22,11,13,5.60
2009,03,22,11,14,5.60
2009,03,22,11,15,5.60
2009,03,22,11,16,5.60
2009,03,22,11,17,5.70
2009,03,22,11,18,5.70
2009,03,22,11,19,5.70
2009,03,22,11,20,5.70
2009,03,22,11,21,5.70
2009,03,22,11,22,5.70
2009,03,22,11,23,5.60
2009,03,22,11,24,5.60
2009,03,22,11,25,5.60
2009,03,22,11,26,5.60
2009,03,22,11,27,5.60
2009,03,22,11,28,5.60
2009,03,22,11,29,5.60
2009,03,22,11,30,5.60
2009,03,22,11,31,5.60
2009,03,22,11,32,5.60
2009,03,22,11,33,5.60
2009,03,22,11,34,5.60
2009,03,22,11,35,5.60
2009,03,22,11,36,5.60
2009,03,22,11,37,5.60
2009,03,22,11,38,5.60
2009,03,22,11,39,5.60
2009,03,22,11,40,5.60
2009,03,22,11,41,5.60
2009,03,22,11,42,5.60
2009,03,22,11,43,5.60
2009,03,22,11,44,5.60
2009,03,22,11,45,5.60
2009,03,22,11,46,5.50
2009,03,22,11,47,5.50
2009,03,22,11,48,5.40
2009,03,22,11,49,5.40
2009,03,22,11,50,5.30
2009,03,22,11,51,5.30
2009,03,22,11,52,5.30
2009,03,22,11,53,5.20
2009,03,22,11,54,5.20
2009,03,22,11,55,5.20
2009,03,22,11,56,5.10
2009,03,22,11,57,5.10
2009,03,22,11,58,5.00
2009,03,22,11,59,5.00
2009,03,22,12,00,4.90
2009,03,22,12,01,4.90
2009,03,22,12,02,4.80
2009,03,22,12,03,4.80
2009,03,22,12,04,4.80
2009,03,22,12,05,4.80
2009,03,22,12,06,4.80
2009,03,22,12,07,4.80
2009,03,22,12,08,4.80
2009,03,22,12,09,4.80
2009,03,22,12,10,4.80
2009,03,22,12,11,4.70
2009,03,22,12,12,4.70
2009,03,22,12,13,4.70
2009,03,22,12,14,4.70
2009,03,22,12,15,4.70
2009,03,22,12,16,4.70
2009,03,22,12,17,4.60
2009,03,22,12,18,4.60
2009,03,22,12,19,4.50
2009,03,22,12,20,4.50
2009,03,22,12,21,4.50
2009,03,22,12,22,4.50
2009,03,22,12,23,4.50
2009,03,22,12,24,4.50
2009,03,22,12,25,4.50
2009,03,22,12,26,4.50
2009,03,22,12,27,4.40
2009,03,22,12,28,4.40
2009,03,22,12,29,4.40
2009,03,22,12,30,4.40
2009,03,22,12,31,4.50
2009,03,22,12,32,4.50
2009,03,22,12,33,4.60
2009,03,22,12,34,4.60
2009,03,22,12,35,4.70
2009,03,22,12,36,4.70
2009,03,22,12,37,4.70
2009,03,22,12,38,4.70
2009,03,22,12,39,4.80
2009,03,22,12,40,4.80
2009,03,22,12,41,4.80
2009,03,22,12,42,4.80
2009,03,22,12,43,4.80
2009,03,22,12,44,4.80
2009,03,22,12,45,4.80
2009,03,22,12,46,4.70
2009,03,22,12,47,4.80
2009,03,22,12,48,4.80
2009,03,22,12,49,4.80
2009,03,22,12,50,4.80
2009,03,22,12,51,4.80
2009,03,22,12,52,4.90
2009,03,22,12,53,4.80
2009,03,22,12,54,4.80
2009,03,22,12,55,4.80
2009,03,22,12,56,4.80
2009,03,22,12,57,4.80
2009,03,22,12,58,4.80
2009,03,22,12,59,4.80
2009,03,22,13,00,4.70
2009,03,22,13,01,4.70
2009,03,22,13,02,4.80
2009,03,22,13,03,4.80
2009,03,22,13,04,4.90
2009,03,22,13,05,4.90
2009,03,22,13,06,4.90
2009,03,22,13,07,4.90
2009,03,22,13,08,4.90
2009,03,22,13,09,4.90
2009,03,22,13,10,5.00
2009,03,22,13,11,5.00
2009,03,22,13,12,4.90
2009,03,22,13,13,4.90
2009,03,22,13,14,4.90
2009,03,22,13,15,4.90
2009,03,22,13,16,5.00
2009,03,22,13,17,5.00
2009,03,22,13,18,5.10
2009,03,22,13,19,5.10
2009,03,22,13,20,5.20
2009,03,22,13,21,5.30
2009,03,22,13,22,5.30
2009,03,22,13,23,5.40
2009,03,22,13,24,5.40
2009,03,22,13,25,5.40
2009,03,22,13,26,5.40
2009,03,22,13,27,5.40
2009,03,22,13,28,5.40
2009,03,22,13,29,5.40
2009,03,22,13,30,5.40
2009,03,22,13,31,5.50
2009,03,22,13,32,5.50
2009,03,22,13,33,5.60
2009,03,22,13,34,5.60
2009,03,22,13,35,5.60
2009,03,22,13,36,5.70
2009,03,22,13,37,5.60
2009,03,22,13,38,5.60
2009,03,22,13,39,5.60
2009,03,22,13,40,5.60
2009,03,22,13,41,5.60
2009,03,22,13,42,5.50
2009,03,22,13,43,5.50
2009,03,22,13,44,5.60
2009,03,22,13,45,5.60
2009,03,22,13,46,5.60
2009,03,22,13,47,5.60
2009,03,22,13,48,5.60
2009,03,22,13,49,5.60
2009,03,22,13,50,5.60
2009,03,22,13,51,5.50
2009,03,22,13,52,5.60
2009,03,22,13,53,5.60
2009,03,22,13,54,5.60
2009,03,22,13,55,5.60
2009,03,22,13,56,5.60
2009,03,22,13,57,5.60
2009,03,22,13,58,5.60
2009,03,22,13,59,5.60
2009,03,22,14,00,5.60
2009,03,22,14,01,5.60
2009,03,22,14,02,5.60
2009,03,22,14,03,5.70
2009,03,22,14,04,5.70
2009,03,22,14,05,5.70
2009,03,22,14,06,5.70
2009,03,22,14,07,5.70
2009,03,22,14,08,5.80
2009,03,22,14,09,5.80
2009,03,22,14,10,5.80
2009,03,22,14,11,5.80
2009,03,22,14,12,5.80
2009,03,22,14,13,5.80
2009,03,22,14,14,5.80
2009,03,22,14,15,5.90
2009,03,22,14,16,5.90
2009,03,22,14,17,5.90
2009,03,22,14,18,5.90
2009,03,22,14,19,6.00
2009,03,22,14,20,6.00
2009,03,22,14,21,6.10
2009,03,22,14,22,6.10
2009,03,22,14,23,6.10
2009,03,22,14,24,6.10
2009,03,22,14,25,6.10
2009,03,22,14,26,6.00
2009,03,22,14,27,6.00
2009,03,22,14,28,5.90
2009,03,22,14,29,5.90
2009,03,22,14,30,5.90
2009,03,22,14,31,5.90
2009,03,22,14,32,5.90
2009,03,22,14,33,5.90
2009,03,22,14,34,5.90
2009,03,22,14,35,5.90
2009,03,22,14,36,5.90
2009,03,22,14,37,5.90
2009,03,22,14,38,5.90
2009,03,22,14,39,5.90
2009,03,22,14,40,6.00
2009,03,22,14,41,5.90
2009,03,22,14,42,5.90
2009,03,22,14,43,5.90
2009,03,22,14,44,5.90
2009,03,22,14,45,5.90
2009,03,22,14,46,5.90
2009,03,22,14,47,5.90
2009,03,22,14,48,5.90
2009,03,22,14,49,5.90
2009,03,22,14,50,6.00
2009,03,22,14,51,6.00
2009,03,22,14,52,6.10
2009,03,22,14,53,6.10
2009,03,22,14,54,6.10
2009,03,22,14,55,6.10
2009,03,22,14,56,6.10
2009,03,22,14,57,6.00
2009,03,22,14,58,6.10
2009,03,22,14,59,6.00
2009,03,22,15,00,6.00
2009,03,22,15,01,6.00
2009,03,22,15,02,6.00
2009,03,22,15,03,6.00
2009,03,22,15,04,5.90
2009,03,22,15,05,5.90
2009,03,22,15,06,5.90
2009,03,22,15,07,5.90
2009,03,22,15,08,5.90
2009,03,22,15,09,5.90
2009,03,22,15,10,5.90
2009,03,22,15,11,5.90
2009,03,22,15,12,6.00
2009,03,22,15,13,6.00
2009,03,22,15,14,6.10
2009,03,22,15,15,6.00
2009,03,22,15,16,6.00
2009,03,22,15,17,6.00
2009,03,22,15,18,6.00
2009,03,22,15,19,6.00
2009,03,22,15,20,6.00
2009,03,22,15,21,6.00
2009,03,22,15,22,5.90
2009,03,22,15,23,6.00
2009,03,22,15,24,6.00
2009,03,22,15,25,6.00
2009,03,22,15,26,6.00
2009,03,22,15,27,6.00
2009,03,22,15,28,6.00
2009,03,22,15,29,6.00
2009,03,22,15,30,6.00
2009,03,22,15,31,6.00
2009,03,22,15,32,6.00
2009,03,22,15,33,6.00
2009,03,22,15,34,6.00
2009,03,22,15,35,6.00
2009,03,22,15,36,6.00
2009,03,22,15,37,6.00
2009,03,22,15,38,5.90
2009,03,22,15,39,5.90
2009,03,22,15,40,5.90
2009,03,22,15,41,5.90
2009,03,22,15,42,5.90
2009,03,22,15,43,5.90
2009,03,22,15,44,5.90
2009,03,22,15,45,6.00
2009,03,22,15,46,6.00
2009,03,22,15,47,6.00
2009,03,22,15,48,6.00
2009,03,22,15,49,6.00
2009,03,22,15,50,6.10
2009,03,22,15,51,6.10
2009,03,22,15,52,6.10
2009,03,22,15,53,6.10
2009,03,22,15,54,6.20
2009,03,22,15,55,6.20
2009,03,22,15,56,6.30
2009,03,22,15,57,6.30
2009,03,22,15,58,6.40
2009,03,22,15,59,6.40
2009,03,22,16,00,6.40
2009,03,22,16,01,6.40
2009,03,22,16,02,6.40
2009,03,22,16,03,6.40
2009,03,22,16,04,6.40
2009,03,22,16,05,6.40
2009,03,22,16,06,6.40
2009,03,22,16,07,6.40
2009,03,22,16,08,6.40
2009,03,22,16,09,6.40
2009,03,22,16,10,6.40
2009,03,22,16,11,6.50
2009,03,22,16,12,6.50
2009,03,22,16,13,6.50
2009,03,22,16,14,6.50
2009,03,22,16,15,6.60
2009,03,22,16,16,6.60
2009,03,22,16,17,6.60
2009,03,22,16,18,6.70
2009,03,22,16,19,6.70
2009,03,22,16,20,6.70
2009,03,22,16,21,6.80
2009,03,22,16,22,6.80
2009,03,22,16,23,6.80
2009,03,22,16,24,6.80
2009,03,22,16,25,6.80
2009,03,22,16,26,6.80
2009,03,22,16,27,6.70
2009,03,22,16,28,6.70
2009,03,22,16,29,6.70
2009,03,22,16,30,6.60
2009,03,22,16,31,6.60
2009,03,22,16,32,6.60
2009,03,22,16,33,6.60
2009,03,22,16,34,6.60
2009,03,22,16,35,6.60
2009,03,22,16,36,6.60
2009,03,22,16,37,6.60
2009,03,22,16,38,6.60
2009,03,22,16,39,6.60
2009,03,22,16,40,6.60
2009,03,22,16,41,6.60
2009,03,22,16,42,6.60
2009,03,22,16,43,6.60
2009,03,22,16,44,6.60
2009,03,22,16,45,6.60
2009,03,22,16,46,6.60
2009,03,22,16,47,6.60
2009,03,22,16,48,6.60
2009,03,22,16,49,6.60
2009,03,22,16,50,6.60
2009,03,22,16,51,6.60
2009,03,22,16,52,6.60
2009,03,22,16,53,6.60
2009,03,22,16,54,6.60
2009,03,22,16,55,6.60
2009,03,22,16,56,6.60
2009,03,22,16,57,6.60
2009,03,22,16,58,6.60
2009,03,22,16,59,6.50
2009,03,22,17,00,6.60
2009,03,22,17,01,6.60
2009,03,22,17,02,6.60
2009,03,22,17,03,6.60
2009,03,22,17,04,6.60
2009,03,22,17,05,6.60
2009,03,22,17,06,6.60
2009,03,22,17,07,6.70
2009,03,22,17,08,6.70
2009,03,22,17,09,6.70
2009,03,22,17,10,6.70
2009,03,22,17,11,6.80
2009,03,22,17,12,6.80
2009,03,22,17,13,6.70
2009,03,22,17,14,6.70
2009,03,22,17,15,6.70
2009,03,22,17,16,6.70
2009,03,22,17,17,6.60
2009,03,22,17,18,6.60
2009,03,22,17,19,6.60
2009,03,22,17,20,6.60
2009,03,22,17,21,6.60
2009,03,22,17,22,6.60
2009,03,22,17,23,6.60
2009,03,22,17,24,6.60
2009,03,22,17,25,6.60
2009,03,22,17,26,6.70
2009,03,22,17,27,6.70
2009,03,22,17,28,6.70
2009,03,22,17,29,6.70
2009,03,22,17,30,6.70
2009,03,22,17,31,6.70
2009,03,22,17,32,6.80
2009,03,22,17,33,6.80
2009,03,22,17,34,6.70
2009,03,22,17,35,6.70
2009,03,22,17,36,6.70
2009,03,22,17,37,6.70
2009,03,22,17,38,6.70
2009,03,22,17,39,6.70
2009,03,22,17,40,6.70
2009,03,22,17,41,6.70
2009,03,22,17,42,6.70
2009,03,22,17,43,6.70
2009,03,22,17,44,6.80
2009,03,22,17,45,6.80
2009,03,22,17,46,6.80
2009,03,22,17,47,6.80
2009,03,22,17,48,6.80
2009,03,22,17,49,6.80
2009,03,22,17,50,6.80
2009,03,22,17,51,6.80
2009,03,22,17,52,6.80
2009,03,22,17,53,6.80
2009,03,22,17,54,6.80
2009,03,22,17,55,6.70
2009,03,22,17,56,6.80
2009,03,22,17,57,6.80
2009,03,22,17,58,6.80
2009,03,22,17,59,6.80
2009,03,22,18,00,6.80
2009,03,22,18,01,6.80
2009,03,22,18,02,6.80
2009,03,22,18,03,6.80
2009,03,22,18,04,6.80
2009,03,22,18,05,6.80
2009,03,22,18,06,6.90
2009,03,22,18,07,6.90
2009,03,22,18,08,6.90
2009,03,22,18,09,6.90
2009,03,22,18,10,6.90
2009,03,22,18,11,6.90
2009,03,22,18,12,6.90
2009,03,22,18,13,6.90
2009,03,22,18,14,6.90
2009,03,22,18,15,6.90
2009,03,22,18,16,6.90
2009,03,22,18,17,6.90
2009,03,22,18,18,6.90
2009,03,22,18,19,7.00
2009,03,22,18,20,7.00
2009,03,22,18,21,6.90
2009,03,22,18,22,6.90
2009,03,22,18,23,6.90
2009,03,22,18,24,6.90
2009,03,22,18,25,6.90
2009,03,22,18,26,6.90
2009,03,22,18,27,6.80
2009,03,22,18,28,6.80
2009,03,22,18,29,6.80
2009,03,22,18,30,6.80
2009,03,22,18,31,6.80
2009,03,22,18,32,6.80
2009,03,22,18,33,6.80
2009,03,22,18,34,6.80
2009,03,22,18,35,6.80
2009,03,22,18,36,6.80
2009,03,22,18,37,6.80
2009,03,22,18,38,6.80
2009,03,22,18,39,6.80
2009,03,22,18,40,6.80
2009,03,22,18,41,6.70
2009,03,22,18,42,6.70
2009,03,22,18,43,6.70
2009,03,22,18,44,6.70
2009,03,22,18,45,6.60
2009,03,22,18,46,6.60
2009,03,22,18,47,6.60
2009,03,22,18,48,6.60
2009,03,22,18,49,6.50
2009,03,22,18,50,6.50
2009,03,22,18,51,6.50
2009,03,22,18,52,6.50
2009,03,22,18,53,6.40
2009,03,22,18,54,6.40
2009,03,22,18,55,6.40